TimeCDT,TemperatureF,Dew PointF,Humidity,Sea Level PressureIn,VisibilityMPH,Wind Direction,Wind SpeedMPH,Gust SpeedMPH,PrecipitationIn,Events,Conditions,WindDirDegrees,DateUTC
12:53 AM,72.0,70.0,93,29.73,10.0,South,10.4,-,N/A,,Partly Cloudy,190,2013-04-12 05:53:00
1:27 AM,71.6,69.8,94,29.72,10.0,South,9.2,-,N/A,,Mostly Cloudy,190,2013-04-12 06:27:00
1:53 AM,73.0,70.0,90,29.71,10.0,South,13.8,-,N/A,,Overcast,180,2013-04-12 06:53:00
2:17 AM,73.4,69.8,88,29.72,10.0,South,12.7,-,N/A,,Scattered Clouds,190,2013-04-12 07:17:00
2:25 AM,73.4,69.8,88,29.72,10.0,South,12.7,-,N/A,,Mostly Cloudy,190,2013-04-12 07:25:00
2:53 AM,73.0,70.0,90,29.72,10.0,SSW,10.4,-,N/A,,Mostly Cloudy,200,2013-04-12 07:53:00
3:37 AM,73.4,69.8,88,29.72,10.0,SSW,10.4,-,N/A,,Mostly Cloudy,200,2013-04-12 08:37:00
3:53 AM,73.0,70.0,90,29.72,10.0,SSW,9.2,-,N/A,,Mostly Cloudy,200,2013-04-12 08:53:00
4:28 AM,73.4,68.0,83,29.72,10.0,SSW,20.7,29.9,0.00,Rain,Light Rain,200,2013-04-12 09:28:00
4:53 AM,72.0,68.0,87,29.73,10.0,SSW,12.7,21.9,0.00,,Overcast,210,2013-04-12 09:53:00
5:13 AM,71.6,68.0,88,29.72,10.0,SSW,12.7,26.5,N/A,,Scattered Clouds,210,2013-04-12 10:13:00
5:32 AM,71.6,68.0,88,29.73,10.0,SSW,11.5,-,N/A,,Mostly Cloudy,210,2013-04-12 10:32:00
5:53 AM,72.0,68.0,87,29.74,10.0,SSW,10.4,-,N/A,,Overcast,210,2013-04-12 10:53:00
6:01 AM,71.6,68.0,88,29.75,10.0,West,15.0,-,N/A,,Overcast,260,2013-04-12 11:01:00
6:19 AM,68.0,66.2,94,29.76,10.0,WNW,15.0,-,N/A,,Overcast,300,2013-04-12 11:19:00
6:53 AM,66.9,63.0,87,29.79,10.0,NW,10.4,-,N/A,,Overcast,310,2013-04-12 11:53:00
7:01 AM,66.2,62.6,88,29.80,10.0,WNW,6.9,-,N/A,,Overcast,300,2013-04-12 12:01:00
7:53 AM,64.9,61.0,87,29.82,10.0,NW,12.7,-,N/A,,Overcast,320,2013-04-12 12:53:00
8:25 AM,64.4,60.8,88,29.83,10.0,NNW,11.5,-,N/A,,Overcast,330,2013-04-12 13:25:00
8:53 AM,64.0,61.0,90,29.84,10.0,NW,10.4,-,N/A,,Overcast,320,2013-04-12 13:53:00
9:53 AM,63.0,59.0,87,29.87,10.0,WNW,10.4,-,N/A,,Overcast,300,2013-04-12 14:53:00
10:53 AM,62.1,57.0,84,29.89,10.0,NNW,9.2,-,N/A,,Overcast,340,2013-04-12 15:53:00
11:24 AM,64.4,57.2,77,29.90,10.0,NW,10.4,-,N/A,,Overcast,320,2013-04-12 16:24:00
11:50 AM,66.2,55.4,68,29.89,10.0,NNW,4.6,-,N/A,,Scattered Clouds,340,2013-04-12 16:50:00
11:53 AM,66.9,55.0,66,29.89,10.0,North,6.9,-,N/A,,Partly Cloudy,350,2013-04-12 16:53:00
12:53 PM,72.0,54.0,53,29.88,10.0,Variable,6.9,-,N/A,,Clear,0,2013-04-12 17:53:00
1:53 PM,75.0,51.1,43,29.87,10.0,NW,8.1,-,N/A,,Clear,310,2013-04-12 18:53:00
2:53 PM,77.0,48.0,36,29.85,10.0,NNW,16.1,-,N/A,,Clear,340,2013-04-12 19:53:00
3:53 PM,77.0,48.0,36,29.84,10.0,WNW,10.4,18.4,N/A,,Clear,300,2013-04-12 20:53:00
4:53 PM,77.0,45.0,32,29.86,10.0,NNW,10.4,-,N/A,,Clear,330,2013-04-12 21:53:00
5:53 PM,75.0,44.1,33,29.86,10.0,WNW,9.2,-,N/A,,Clear,290,2013-04-12 22:53:00
6:53 PM,71.1,48.9,45,29.87,10.0,NW,5.8,-,N/A,,Clear,310,2013-04-12 23:53:00
7:53 PM,64.9,48.9,56,29.89,10.0,NW,4.6,-,N/A,,Clear,310,2013-04-13 00:53:00
8:53 PM,62.1,50.0,65,29.91,10.0,Calm,Calm,-,N/A,,Clear,0,2013-04-13 01:53:00
9:53 PM,60.1,48.9,67,29.93,10.0,NW,4.6,-,N/A,,Clear,320,2013-04-13 02:53:00
10:53 PM,57.9,50.0,75,29.94,10.0,NW,3.5,-,N/A,,Clear,320,2013-04-13 03:53:00
11:53 PM,57.9,50.0,75,29.95,10.0,WNW,3.5,-,N/A,,Clear,300,2013-04-13 04:53:00